Flag for Canada Weather past 2 weeks in Stephenville, Newfoundland and Labrador, Canada

Now
25 °F

Snow flurries. Ice fog.


Feels Like: 7 °F
Forecast: 11 / 23 °F
Wind: 35 mph from West

Location: Stephenville

Current Time: Jan 26, 2015 at 6:59:44 AM

Latest Report: Jan 26, 2015 at 6:30 AM


Visibility: 0 mi

Pressure: 29.51 "Hg

Humidity: 80%

Dew point: 19 °F

Location of StephenvilleLocation

Historic Weather in Stephenville — Graph

°F

Stephenville temperature yesterday

Maximum temperature yesterday: 45 °F (at 5:30 AM)
Minimum temperature yesterday: 23 °F (at 11:30 PM)
Average temperature yesterday: 34 °F

Past Weeks' High & Low Weather Summary

 TemperatureHumidityPressure
High45 °F (Jan 25, 5:30 AM)100% (Jan 12, 11:30 PM)30.45 "Hg (Jan 12, 11:30 PM)
Low9 °F (Jan 13, 3:30 PM)53% (Jan 11, 12:30 PM)28.36 "Hg (Jan 25, 9:30 AM)
Average23 °F80%29.88 "Hg
* Reported Jan 11 5:30 AM — Jan 26 5:30 AM, Stephenville, Weather by CustomWeather, © 2014

Note: Actual official high and low records may vary slightly from our data, if they occured in-between our weather recording intervals... More about our weather records

Advertising

Stephenville weather history for previous 24 hours

 ConditionsComfort  
Time TempWeatherWind HumidityBarometerVisibility
5:30 AM
Jan 26
25 °FSnow flurries. Ice fog.41 mph80%29.46 "Hg1 mi
4:30 AM23 °FSnow flurries. Overcast.40 mph86%29.43 "Hg3 mi
3:30 AM25 °FSnow flurries. Overcast.44 mph80%29.38 "Hg1 mi
2:30 AM23 °FSnow flurries. Ice fog.39 mph86%29.35 "Hg1 mi
1:30 AM19 °FSnow flurries. Overcast.39 mph73%29.34 "Hg3 mi
12:30 AM21 °FSnow flurries. Overcast.39 mph80%29.31 "Hg6 mi
11:30 PM
Jan 25
23 °FSnow flurries. Overcast.24 mph80%29.28 "Hg3 mi
10:30 PM25 °FSnow flurries. Overcast.31 mph69%29.26 "Hg4 mi
10:23 PM25 °FSnow flurries. Overcast.35 mph74%29.25 "Hg4 mi
9:30 PM28 °FSnow flurries. Overcast.25 mph80%29.22 "Hg12 mi
8:30 PM32 °FOvercast.31 mph80%29.19 "Hg15 mi
7:30 PM30 °FSnow flurries. Overcast.29 mph86%29.18 "Hg12 mi
7:22 PM30 °FSnow flurries. Overcast.26 mph86%29.18 "Hg12 mi
6:30 PM32 °FOvercast.26 mph80%29.15 "Hg15 mi
5:30 PM30 °FOvercast.26 mph80%29.12 "Hg15 mi
4:30 PM30 °FOvercast.31 mph80%29.10 "Hg15 mi
3:30 PM30 °FOvercast.33 mph80%29.07 "Hg15 mi
2:30 PM30 °FOvercast.41 mph86%29.00 "Hg10 mi
1:30 PM32 °FMostly cloudy.33 mph87%28.91 "Hg10 mi
12:30 PM30 °FMostly cloudy.41 mph86%28.80 "Hg10 mi
12:27 PM30 °FMostly cloudy.41 mph86%28.80 "Hg10 mi
11:30 AM30 °FSnow flurries. Mostly cloudy.48 mph93%28.62 "Hg6 mi
10:30 AM34 °FMostly cloudy.51 mph87%28.46 "Hg10 mi
9:30 AM43 °FBroken clouds.29 mph87%28.36 "Hg12 mi
8:30 AM43 °FBroken clouds.30 mph87%28.43 "Hg12 mi
8:19 AM41 °FOvercast.25 mph93%28.46 "Hg12 mi
7:30 AM43 °FLight rain. Overcast.31 mph87%28.47 "Hg10 mi
6:30 AM45 °FLight rain. Overcast.36 mph81%28.55 "Hg10 mi
Weather by CustomWeather, © 2014

See weather overviewHow to use our weather pages